| time (UTC) | temp C | wind direction | speed KPH | gust KPH | rain 1hr cm | rain 24hr cm | rain mn cm | humidity % | barometer mb |
| 20260509064557 | 18 | 0 | 0.0 | 6.4 | 0.00 | 0.00 | 0.00 | 71 | 1022.1 |
| 20260509063557 | 18 | 134 | 1.6 | 6.4 | 0.00 | 0.00 | 0.00 | 71 | 1022.0 |
| 20260509062559 | 18 | 51 | 0.0 | 4.8 | 0.00 | 0.00 | 0.00 | 71 | 1021.9 |
| 20260509061559 | 19 | 112 | 0.0 | 4.8 | 0.00 | 0.00 | 0.00 | 70 | 1021.9 |
| 20260509060559 | 20 | 0 | 1.6 | 4.8 | 0.00 | 0.00 | 0.00 | 67 | 1021.8 |
| 20260509055558 | 20 | 124 | 0.0 | 4.8 | 0.00 | 0.00 | 0.00 | 65 | 1021.8 |
| 20260509054558 | 21 | 249 | 0.0 | 3.2 | 0.00 | 0.00 | 0.00 | 65 | 1021.7 |
| 20260509053557 | 21 | 0 | 1.6 | 6.4 | 0.00 | 0.00 | 0.00 | 64 | 1021.7 |
| 20260509052556 | 21 | 129 | 1.6 | 9.7 | 0.00 | 0.00 | 0.00 | 65 | 1021.6 |
| 20260509051556 | 21 | 0 | 1.6 | 8.0 | 0.00 | 0.00 | 0.00 | 64 | 1021.6 |
| 20260509050552 | 21 | 168 | 1.6 | 9.7 | 0.00 | 0.00 | 0.00 | 66 | 1021.6 |
| 20260509045553 | 21 | 218 | 1.6 | 9.7 | 0.00 | 0.00 | 0.00 | 64 | 1021.5 |
| 20260509044554 | 21 | 252 | 3.2 | 11.3 | 0.00 | 0.00 | 0.00 | 63 | 1021.4 |
| 20260509042548 | 21 | 165 | 3.2 | 6.4 | 0.00 | 0.00 | 0.00 | 63 | 1021.4 |
| 20260509041548 | 20 | 243 | 3.2 | 9.7 | 0.00 | 0.00 | 0.00 | 66 | 1021.4 |
| 20260509041031 | 20 | 179 | 3.2 | 9.7 | 0.00 | 0.00 | 0.00 | 67 | 1021.5 |
| 20260509035548 | 20 | 236 | 3.2 | 9.7 | 0.00 | 0.00 | 0.00 | 67 | 1021.5 |
| 20260509034548 | 20 | 282 | 3.2 | 11.3 | 0.00 | 0.00 | 0.00 | 67 | 1021.6 |
| 20260509033545 | 20 | 74 | 3.2 | 11.3 | 0.00 | 0.00 | 0.00 | 65 | 1021.6 |
| 20260509032542 | 20 | 54 | 3.2 | 11.3 | 0.00 | 0.00 | 0.00 | 65 | 1021.7 |
| 20260509031543 | 20 | 229 | 3.2 | 11.3 | 0.00 | 0.00 | 0.00 | 66 | 1021.7 |
| 20260509030542 | 21 | 112 | 3.2 | 9.7 | 0.00 | 0.00 | 0.00 | 62 | 1021.7 |
| 20260509025544 | 20 | 232 | 3.2 | 9.7 | 0.00 | 0.00 | 0.00 | 63 | 1021.8 |
| 20260509024541 | 20 | 103 | 3.2 | 9.7 | 0.00 | 0.00 | 0.00 | 62 | 1021.8 |
| 20260509024015 | 20 | 184 | 3.2 | 9.7 | 0.00 | 0.00 | 0.00 | 62 | 1021.9 |
| 20260509022537 | 20 | 216 | 3.2 | 8.0 | 0.00 | 0.00 | 0.00 | 60 | 1022.0 |
| 20260509021536 | 20 | 128 | 3.2 | 11.3 | 0.00 | 0.00 | 0.00 | 61 | 1022.1 |
| 20260509021019 | 20 | 155 | 3.2 | 11.3 | 0.00 | 0.00 | 0.00 | 61 | 1022.1 |
| 20260509015537 | 20 | 122 | 3.2 | 11.3 | 0.00 | 0.00 | 0.00 | 61 | 1022.3 |
| 20260509014535 | 20 | 315 | 3.2 | 12.9 | 0.00 | 0.00 | 0.00 | 60 | 1022.4 |
| 20260509013535 | 20 | 165 | 3.2 | 9.7 | 0.00 | 0.00 | 0.00 | 60 | 1022.5 |
| 20260509012535 | 20 | 159 | 3.2 | 9.7 | 0.00 | 0.00 | 0.00 | 59 | 1022.6 |
| 20260509010536 | 20 | 192 | 3.2 | 9.7 | 0.00 | 0.00 | 0.00 | 61 | 1022.7 |
| 20260509005535 | 20 | 121 | 3.2 | 9.7 | 0.00 | 0.00 | 0.00 | 61 | 1022.9 |
| 20260509004533 | 19 | 163 | 1.6 | 6.4 | 0.00 | 0.00 | 0.00 | 62 | 1023.1 |
| 20260509003530 | 18 | 326 | 1.6 | 8.0 | 0.00 | 0.00 | 0.00 | 63 | 1023.1 |
| 20260509002529 | 18 | 98 | 1.6 | 6.4 | 0.00 | 0.00 | 0.00 | 64 | 1023.1 |
| 20260509001528 | 18 | 30 | 1.6 | 6.4 | 0.00 | 0.00 | 0.00 | 63 | 1023.1 |
| 20260509000528 | 17 | 251 | 1.6 | 4.8 | 0.00 | 0.00 | 0.00 | 65 | 1023.1 |
| 20260508235528 | 17 | 331 | 1.6 | 6.4 | 0.00 | 0.00 | 0.00 | 66 | 1023.1 |
| 20260508234528 | 17 | 83 | 3.2 | 8.0 | 0.00 | 0.00 | 0.00 | 66 | 1023.2 |
| 20260508233529 | 17 | 0 | 3.2 | 9.7 | 0.00 | 0.00 | 0.00 | 65 | 1023.2 |
| 20260508232526 | 17 | 224 | 1.6 | 6.4 | 0.00 | 0.00 | 0.00 | 66 | 1023.2 |
| 20260508231525 | 17 | 229 | 1.6 | 8.0 | 0.00 | 0.00 | 0.00 | 66 | 1023.2 |
| 20260508230526 | 16 | 35 | 1.6 | 6.4 | 0.00 | 0.00 | 0.00 | 67 | 1023.1 |
| 20260508225525 | 16 | 10 | 1.6 | 6.4 | 0.00 | 0.00 | 0.00 | 69 | 1023.1 |
| 20260508224959 | 15 | 58 | 1.6 | 6.4 | 0.00 | 0.00 | 0.00 | 70 | 1023.1 |
| 20260508223524 | 15 | 69 | 1.6 | 6.4 | 0.00 | 0.00 | 0.00 | 72 | 1023.0 |
| 20260508222523 | 13 | 157 | 1.6 | 4.8 | 0.00 | 0.00 | 0.00 | 75 | 1023.0 |
| 20260508221524 | 12 | 52 | 1.6 | 6.4 | 0.00 | 0.00 | 0.00 | 77 | 1022.9 |
| 20260508215523 | 11 | 32 | 1.6 | 4.8 | 0.00 | 0.00 | 0.00 | 82 | 1022.8 |
| 20260508213521 | 10 | 31 | 0.0 | 3.2 | 0.00 | 0.00 | 0.00 | 87 | 1022.5 |
| 20260508212519 | 9 | 307 | 0.0 | 3.2 | 0.00 | 0.00 | 0.00 | 89 | 1022.3 |
| 20260508211519 | 8 | 67 | 0.0 | 3.2 | 0.00 | 0.00 | 0.00 | 89 | 1022.1 |
| 20260508210518 | 8 | 0 | 0.0 | 1.6 | 0.00 | 0.00 | 0.00 | 89 | 1022.1 |
| 20260508204520 | 8 | 0 | 0.0 | 3.2 | 0.00 | 0.00 | 0.00 | 88 | 1021.8 |
| 20260508203517 | 8 | 358 | 0.0 | 1.6 | 0.00 | 0.00 | 0.00 | 88 | 1021.6 |
| 20260508202519 | 8 | 71 | 0.0 | 4.8 | 0.00 | 0.00 | 0.00 | 88 | 1021.5 |
| 20260508201517 | 8 | 76 | 0.0 | 4.8 | 0.00 | 0.00 | 0.00 | 88 | 1021.5 |
| 20260508200516 | 8 | 318 | 0.0 | 3.2 | 0.00 | 0.00 | 0.00 | 88 | 1021.5 |
| 20260508195517 | 8 | 277 | 0.0 | 3.2 | 0.00 | 0.00 | 0.00 | 87 | 1021.3 |
| 20260508194517 | 8 | 329 | 0.0 | 1.6 | 0.00 | 0.00 | 0.00 | 87 | 1021.2 |
| 20260508193516 | 9 | 0 | 0.0 | 4.8 | 0.00 | 0.00 | 0.00 | 87 | 1021.0 |
| 20260508192957 | 9 | 0 | 0.0 | 3.2 | 0.00 | 0.00 | 0.00 | 87 | 1020.9 |
| 20260508191515 | 9 | 334 | 0.0 | 4.8 | 0.00 | 0.00 | 0.00 | 87 | 1020.8 |
| 20260508190953 | 9 | 0 | 0.0 | 3.2 | 0.00 | 0.00 | 0.00 | 86 | 1020.7 |
| 20260508185515 | 9 | 0 | 0.0 | 3.2 | 0.00 | 0.00 | 0.00 | 86 | 1020.7 |
| 20260508184515 | 9 | 0 | 0.0 | 3.2 | 0.00 | 0.00 | 0.00 | 86 | 1020.6 |
| 20260508183516 | 9 | 0 | 0.0 | 3.2 | 0.00 | 0.00 | 0.00 | 86 | 1020.7 |
| 20260508182515 | 9 | 0 | 0.0 | 3.2 | 0.00 | 0.00 | 0.00 | 86 | 1020.6 |
| 20260508181513 | 9 | 14 | 0.0 | 3.2 | 0.00 | 0.00 | 0.00 | 85 | 1020.6 |
| 20260508180513 | 9 | 76 | 0.0 | 3.2 | 0.00 | 0.00 | 0.00 | 86 | 1020.4 |
| 20260508175511 | 9 | 0 | 0.0 | 4.8 | 0.00 | 0.00 | 0.00 | 87 | 1020.4 |
| 20260508174513 | 9 | 0 | 0.0 | 3.2 | 0.00 | 0.00 | 0.00 | 87 | 1020.4 |
| 20260508173512 | 8 | 0 | 0.0 | 3.2 | 0.00 | 0.00 | 0.00 | 87 | 1020.4 |
| 20260508172513 | 8 | 167 | 0.0 | 1.6 | 0.00 | 0.00 | 0.00 | 87 | 1020.4 |
| 20260508171512 | 8 | 0 | 0.0 | 3.2 | 0.00 | 0.00 | 0.00 | 87 | 1020.4 |
| 20260508170513 | 9 | 0 | 0.0 | 1.6 | 0.00 | 0.00 | 0.00 | 86 | 1020.3 |
| 20260508165511 | 9 | 347 | 0.0 | 3.2 | 0.00 | 0.00 | 0.00 | 85 | 1020.3 |
| 20260508164512 | 9 | 58 | 0.0 | 3.2 | 0.00 | 0.00 | 0.00 | 85 | 1020.3 |
| 20260508163512 | 9 | 0 | 0.0 | 4.8 | 0.00 | 0.00 | 0.00 | 85 | 1020.3 |
| 20260508162512 | 9 | 12 | 0.0 | 3.2 | 0.00 | 0.00 | 0.00 | 85 | 1020.2 |
| 20260508161511 | 9 | 0 | 0.0 | 1.6 | 0.00 | 0.00 | 0.00 | 84 | 1020.2 |
| 20260508160512 | 10 | 0 | 0.0 | 3.2 | 0.00 | 0.00 | 0.00 | 84 | 1020.2 |
| 20260508155512 | 10 | 0 | 0.0 | 1.6 | 0.00 | 0.00 | 0.00 | 82 | 1020.2 |
| 20260508154511 | 10 | 0 | 0.0 | 3.2 | 0.00 | 0.00 | 0.00 | 82 | 1020.2 |
| 20260508153509 | 10 | 12 | 0.0 | 4.8 | 0.00 | 0.00 | 0.00 | 81 | 1020.2 |
| 20260508152510 | 10 | 318 | 0.0 | 4.8 | 0.00 | 0.00 | 0.00 | 81 | 1020.1 |
| 20260508151511 | 10 | 306 | 0.0 | 3.2 | 0.00 | 0.00 | 0.00 | 81 | 1020.2 |
| 20260508150509 | 10 | 0 | 0.0 | 4.8 | 0.00 | 0.00 | 0.00 | 82 | 1020.2 |
| 20260508145507 | 10 | 356 | 0.0 | 3.2 | 0.00 | 0.00 | 0.00 | 82 | 1020.2 |
| 20260508144507 | 10 | 15 | 0.0 | 3.2 | 0.00 | 0.00 | 0.00 | 81 | 1020.2 |
| 20260508143508 | 10 | 296 | 0.0 | 3.2 | 0.00 | 0.00 | 0.00 | 80 | 1020.2 |
| 20260508142508 | 10 | 339 | 0.0 | 3.2 | 0.00 | 0.00 | 0.00 | 80 | 1020.2 |
| 20260508141508 | 11 | 0 | 0.0 | 3.2 | 0.00 | 0.00 | 0.00 | 79 | 1020.2 |
| 20260508140508 | 11 | 260 | 0.0 | 1.6 | 0.00 | 0.00 | 0.00 | 78 | 1020.1 |
| 20260508135947 | 11 | 0 | 0.0 | 3.2 | 0.00 | 0.00 | 0.00 | 77 | 1020.1 |
| 20260508134508 | 11 | 0 | 0.0 | 3.2 | 0.00 | 0.00 | 0.00 | 76 | 1020.1 |
| 20260508133505 | 11 | 0 | 0.0 | 3.2 | 0.00 | 0.00 | 0.00 | 76 | 1020.1 |
| 20260508132506 | 11 | 309 | 0.0 | 3.2 | 0.00 | 0.00 | 0.00 | 76 | 1020.1 |
| 20260508131507 | 12 | 41 | 0.0 | 3.2 | 0.00 | 0.00 | 0.00 | 75 | 1020.1 |
| 20260508130503 | 12 | 320 | 0.0 | 3.2 | 0.00 | 0.00 | 0.00 | 74 | 1020.1 |
| 20260508125951 | 12 | 0 | 0.0 | 4.8 | 0.00 | 0.00 | 0.00 | 74 | 1020.0 |
| 20260508124940 | 12 | 0 | 0.0 | 3.2 | 0.00 | 0.00 | 0.00 | 73 | 1020.0 |
| 20260508123500 | 12 | 0 | 1.6 | 4.8 | 0.00 | 0.00 | 0.00 | 72 | 1020.0 |
| 20260508122500 | 12 | 52 | 0.0 | 4.8 | 0.00 | 0.00 | 0.00 | 72 | 1019.8 |
| 20260508121501 | 12 | 288 | 0.0 | 3.2 | 0.00 | 0.00 | 0.00 | 73 | 1019.9 |
| 20260508120501 | 12 | 0 | 1.6 | 4.8 | 0.00 | 0.00 | 0.00 | 72 | 1020.0 |
| 20260508115459 | 12 | 143 | 0.0 | 3.2 | 0.00 | 0.00 | 0.00 | 71 | 1019.8 |
| 20260508114943 | 13 | 31 | 1.6 | 8.0 | 0.00 | 0.00 | 0.00 | 71 | 1019.8 |
| 20260508113458 | 13 | 0 | 1.6 | 4.8 | 0.00 | 0.00 | 0.00 | 70 | 1019.7 |
| 20260508112459 | 13 | 0 | 1.6 | 4.8 | 0.00 | 0.00 | 0.00 | 71 | 1019.7 |
| 20260508111940 | 12 | 0 | 0.0 | 4.8 | 0.00 | 0.00 | 0.00 | 71 | 1019.6 |
| 20260508110456 | 12 | 74 | 1.6 | 6.4 | 0.00 | 0.00 | 0.00 | 71 | 1019.5 |
| 20260508105456 | 12 | 0 | 0.0 | 3.2 | 0.00 | 0.00 | 0.00 | 71 | 1019.3 |
| 20260508104933 | 13 | 0 | 0.0 | 4.8 | 0.00 | 0.00 | 0.00 | 71 | 1019.2 |
| 20260508103453 | 13 | 0 | 0.0 | 3.2 | 0.00 | 0.00 | 0.00 | 69 | 1019.2 |
| 20260508102454 | 14 | 70 | 0.0 | 3.2 | 0.00 | 0.00 | 0.00 | 67 | 1018.9 |
| 20260508101946 | 15 | 0 | 0.0 | 1.6 | 0.00 | 0.00 | 0.00 | 67 | 1018.8 |
| 20260508100454 | 15 | 0 | 0.0 | 4.8 | 0.00 | 0.00 | 0.00 | 64 | 1018.6 |
| 20260508095451 | 16 | 40 | 0.0 | 4.8 | 0.00 | 0.00 | 0.00 | 63 | 1018.4 |
| 20260508094452 | 16 | 50 | 1.6 | 3.2 | 0.00 | 0.00 | 0.00 | 62 | 1018.3 |
| 20260508093450 | 16 | 0 | 1.6 | 4.8 | 0.00 | 0.00 | 0.00 | 61 | 1018.1 |
| 20260508092453 | 17 | 128 | 0.0 | 3.2 | 0.00 | 0.00 | 0.00 | 61 | 1017.9 |
| 20260508091452 | 17 | 0 | 1.6 | 4.8 | 0.00 | 0.00 | 0.00 | 60 | 1017.9 |
| 20260508090450 | 17 | 333 | 1.6 | 4.8 | 0.00 | 0.00 | 0.00 | 60 | 1017.7 |
| 20260508085450 | 17 | 0 | 0.0 | 3.2 | 0.00 | 0.00 | 0.00 | 60 | 1017.6 |
| 20260508084448 | 17 | 92 | 1.6 | 4.8 | 0.00 | 0.00 | 0.00 | 58 | 1017.3 |
| 20260508083919 | 17 | 231 | 1.6 | 8.0 | 0.00 | 0.00 | 0.00 | 57 | 1017.2 |
| 20260508082448 | 17 | 103 | 1.6 | 6.4 | 0.00 | 0.00 | 0.00 | 57 | 1017.0 |
| 20260508081445 | 16 | 79 | 1.6 | 4.8 | 0.00 | 0.00 | 0.00 | 61 | 1016.9 |
| 20260508080445 | 15 | 0 | 1.6 | 6.4 | 0.00 | 0.00 | 0.00 | 63 | 1016.7 |
| 20260508075445 | 14 | 0 | 0.0 | 4.8 | 0.00 | 0.00 | 0.00 | 65 | 1016.6 |
| 20260508074441 | 13 | 0 | 0.0 | 4.8 | 0.00 | 0.00 | 0.00 | 70 | 1016.3 |
| 20260508073441 | 14 | 0 | 0.0 | 6.4 | 0.00 | 0.00 | 0.00 | 70 | 1016.1 |
| 20260508072442 | 15 | 0 | 0.0 | 3.2 | 0.00 | 0.00 | 0.00 | 70 | 1016.0 |
| 20260508071442 | 15 | 0 | 1.6 | 9.7 | 0.00 | 0.00 | 0.00 | 67 | 1015.8 |
| 20260508070443 | 15 | 0 | 0.0 | 3.2 | 0.00 | 0.00 | 0.00 | 67 | 1015.7 |
| 20260508065438 | 16 | 0 | 0.0 | 3.2 | 0.00 | 0.00 | 0.00 | 66 | 1015.4 |